Weather Roundup
Issued by NWS

Home | Current Version | Previous Version | Text Only | Print | Product List | Glossary On
Versions: 1 2 3 4 5 6 7 8 9 10 11 12 13 14 15 16 17 18 19 20 21 22 23 24 25 26 27 28 29 30 31 32 33 34 35 36 37 38 39 40 41 42 43 44 45 46 47 48 49 50
000
NZUS93 KARX 252310
HRRWXR

CURRENT HOURLY OBSERVATIONS ACROSS
MUCH OF THE UPPER MISSISSIPPI VALLEY
NATIONAL WEATHER SERVICE LA CROSSE WI
600 PM CDT WED MAY 25 2016


...SOUTHEAST MINNESOTA...


CITY           SKY/WX    TMP DP  RH WIND       PRES   REMARKS
ROCHESTER      MOSUNNY   74  66  76 SW13      29.82F
ROCHESTER/MAYO FAIR      75  65  71 SW10      29.82S
WINONA         MOSUNNY   73  63  68 SW6       29.81S
AUSTIN         PTSUNNY   77  63  61 SW12      29.81F
ALBERT LEA     CLOUDY    79  59  50 SW6       29.80F
DODGE CENTER   PTSUNNY   73  66  78 SW10      29.82S
PRESTON        PTSUNNY   73  63  69 S10       29.84S
OWATONNA       CLOUDY    79  63  57 SW10G16   29.80F
FARIBAULT      CLOUDY    79  63  57 SW7       29.80F
$$

...ELSEWHERE IN MINNESOTA...


CITY           SKY/WX    TMP DP  RH WIND       PRES   REMARKS
MINNEAPOLIS    CLOUDY    74  63  68 VRB5      29.79F
INTNL FALLS    LGT RAIN  66  53  63 E9        29.86F
DULUTH         LGT RAIN  49  47  93 E18G26    29.92F FOG
RED WING       PTSUNNY   72  64  78 CALM      29.79S
REDWOOD FALLS  SUNNY     79  58  48 SW14G22   29.77S
MANKATO        SUNNY     79  61  53 SW7       29.78F
WORTHINGTON    SUNNY     78  61  55 W12       29.81F
FAIRMONT       MOSUNNY   81  48  32 W16       29.80S
$$

...SOUTHWEST WISCONSIN...


CITY           SKY/WX    TMP DP  RH WIND       PRES   REMARKS
LA CROSSE      MOSUNNY   79  63  57 SW15      29.80F
PRAIRIE DU CHI CLOUDY    80  59  47 S9        29.81F
BOSCOBEL       PTSUNNY   84  64  50 SW9G20    29.81S
LONE ROCK      CLOUDY    79  62  56 S7        29.82S
PLATTEVILLE    CLOUDY    83  61  47 S17       29.84S
FORT MC COY    CLOUDY    70  67  88 SW3       29.83R
CAMP DOUGLAS   CLOUDY    67  67 100 E9        29.81F
MAUSTON-NEW LI CLOUDY    67  65  93 CALM      29.82F
VIROQUA        FAIR      77  62  61 SW18G24   29.84S
WIS DELLS      CLOUDY    81  57  44 SW14G20   29.82S
$$

...ELSEWHERE IN WISCONSIN...


CITY           SKY/WX    TMP DP  RH WIND       PRES   REMARKS
MILWAUKEE      CLOUDY    55  50  83 NE7       29.90F THUNDER
MADISON        CLOUDY    76  67  73 E9        29.83F
GREEN BAY      CLOUDY    63  59  87 NE13      29.95R
EAU CLAIRE     RAIN      66  64  93 S7        29.81S FOG
BLACK RVR FLS  MOCLDY    76  66  71 SW8       29.81S
MEDFORD        LGT RAIN  64  64  99 E12G17    29.83F
WAUSAU         LGT RAIN  66  32  28 E13G22    29.85F
WIS RAPIDS     CLOUDY    68  62  81 VRB3      29.86F
MARSHFIELD     CLOUDY    68  62  81 SE13      29.84S
RICE LAKE      RAIN      63  60  92 N7        29.86S
$$

...NORTHEAST IOWA...


CITY           SKY/WX    TMP DP  RH WIND       PRES   REMARKS
WATERLOO       MOSUNNY   81  59  47 SW12      29.83S
DUBUQUE        CLOUDY    78  59  51 SW16G23   29.84F
DECORAH        SUNNY     77  64  65 VRB5      29.83F
MASON CITY     CLOUDY    78  65  63 SW10      29.83F
CHARLES CITY   PTSUNNY   79  63  57 SW10G16   29.84S
OELWEIN        MOSUNNY   81  63  54 SW16G23   29.84F
$$

...ELSEWHERE IN IOWA...


CITY           SKY/WX    TMP DP  RH WIND       PRES   REMARKS
DES MOINES     MOSUNNY   78  62  57 CALM      29.85F
IOWA CITY      MOSUNNY   83  58  42 S12       29.87S
FORT DODGE     PTSUNNY   81  61  50 SW8       29.83S
MARSHALLTOWN   SUNNY     79  61  53 SW13      29.85S
CEDAR RAPIDS   MOSUNNY   82  61  48 SW14G23   29.84F
$$

...NORTHERN ILLINOIS...


CITY           SKY/WX    TMP DP  RH WIND       PRES   REMARKS
CHICAGO-OHARE  TSTM      68  65  90 S7        29.90S
CHICAGO-MIDWAY TSTM      70  63  78 N12G37    29.91R
MOLINE         CLOUDY    84  58  40 SW9       29.84F
ROCKFORD       PTSUNNY   75  64  68 SE13      29.87S
PEORIA         SUNNY     83  64  52 SW16      29.86S
$$

NOTE: "FAIR" INDICATES FEW OR NO CLOUDS BELOW 12,000 FEET WITH NO
SIGNIFICANT WEATHER AND/OR OBSTRUCTIONS TO VISIBILITY. WIND
SPEEDS ARE IN MILES-PER-HOUR.




USA.gov is the U.S. government's official web portal to all federal, state and local government web resources and services.